BEIDOU-3 G2

Last updated on Thu Nov 21 2024 00:02:44 GMT+0000 (Coordinated Universal Time)

1 45344U 20017A 24325.53973006 -.00000140 00000+0 00000+0 0 9993 2 45344 2.5322 35.0570 0004614 216.8711 82.4536 1.00271438 17504
UTC large
Height (km)
Speed (km/s)
/
Latitude / Longitude
Inclination (degrees)
Orbital Period (minutes)
Azimuth
Elevation
Range (km)
Doppler Factor

Next 0 passes for location: London (51.5072 / 0.1276)

Sorry there are no passes over London.